EZY2986 LIRF-LSZH

Flight info

Callsign EZY2986
Flight time 1h 10m
Altitude 32000
Route SOVAN DCT AMTEL DCT PEPAG DCT CANNE Z651 DETRI/N0406F300 Z651 KELIP
Aircraft A320/M-SDE3FGHIRWY/LB1

Departure

Time 2026-05-06 07:35
Airport Rome–Fiumicino Leonardo da Vinci International Airport (LIRF)

Arrival

Time 2026-05-06 08:45
Airport Zürich Airport (LSZH)
Time Latitude Longitude Altitude Speed Heading
2026-05-06 06:58 41.79707 12.25840 14 ft 0 kts 115°
2026-05-06 07:11 41.79710 12.25830 15 ft 3 kts 115°
2026-05-06 07:12 41.79710 12.25829 16 ft 0 kts 115°
2026-05-06 07:23 41.79715 12.25816 14 ft 3 kts 115°
2026-05-06 07:23 41.79723 12.25795 15 ft 3 kts 98°
2026-05-06 07:23 41.79722 12.25771 14 ft 3 kts 62°
2026-05-06 07:24 41.79721 12.25767 14 ft 0 kts 55°
2026-05-06 07:25 41.79724 12.25769 14 ft 0 kts 38°
2026-05-06 07:28 41.79825 12.25835 14 ft 6 kts 13°
2026-05-06 07:29 41.79874 12.25828 14 ft 15 kts 10°
2026-05-06 07:29 41.80025 12.25919 15 ft 26 kts 26°
2026-05-06 07:29 41.80177 12.26012 15 ft 23 kts 23°
2026-05-06 07:29 41.80305 12.26091 16 ft 7 kts 25°
2026-05-06 07:30 41.80326 12.26104 14 ft 8 kts 25°
2026-05-06 07:30 41.80394 12.26144 17 ft 8 kts 21°
2026-05-06 07:30 41.80431 12.26163 16 ft 5 kts 21°
2026-05-06 07:30 41.80469 12.26178 17 ft 3 kts 13°
2026-05-06 07:31 41.80481 12.26181 16 ft 1 kts 10°
2026-05-06 07:31 41.80485 12.26182 16 ft 0 kts
2026-05-06 07:31 41.80492 12.26181 16 ft 7 kts 357°
2026-05-06 07:31 41.80533 12.26168 18 ft 0 kts 350°
2026-05-06 07:32 41.80568 12.26149 17 ft 13 kts 336°
2026-05-06 07:32 41.80623 12.26122 16 ft 0 kts 343°
2026-05-06 07:33 41.80627 12.26121 16 ft 8 kts 344°
2026-05-06 07:33 41.80710 12.26061 19 ft 11 kts 291°
2026-05-06 07:33 41.80708 12.26025 18 ft 0 kts 253°
2026-05-06 07:35 41.80693 12.25966 17 ft 33 kts 250°
2026-05-06 07:35 41.80506 12.25290 16 ft 119 kts 249°
2026-05-06 07:35 41.80136 12.23941 141 ft 177 kts 246°
2026-05-06 07:35 41.79688 12.22342 806 ft 194 kts 244°
2026-05-06 07:36 41.79229 12.20576 1725 ft 206 kts 256°
2026-05-06 07:36 41.79434 12.18646 2879 ft 219 kts 294°
2026-05-06 07:36 41.80364 12.16868 3646 ft 252 kts 303°
2026-05-06 07:36 41.81548 12.14843 3918 ft 300 kts 305°
2026-05-06 07:37 41.82959 12.12482 4002 ft 347 kts 306°
2026-05-06 07:37 41.84849 12.10171 3990 ft 391 kts 327°
2026-05-06 07:37 41.87244 12.08693 5142 ft 350 kts 334°
2026-05-06 07:37 41.89316 12.07515 6299 ft 291 kts 334°
2026-05-06 07:38 41.91105 12.06508 7164 ft 283 kts 334°
2026-05-06 07:38 41.93039 12.05797 7168 ft 284 kts 346°
2026-05-06 07:38 41.94968 12.05442 7164 ft 284 kts 351°
2026-05-06 07:38 41.96978 12.05596 7168 ft 288 kts
2026-05-06 07:39 41.98962 12.05926 7164 ft 286 kts 359°
2026-05-06 07:39 42.00946 12.05908 7163 ft 285 kts 353°
2026-05-06 07:39 42.02921 12.05700 7166 ft 284 kts 351°
2026-05-06 07:39 42.04890 12.05429 7169 ft 285 kts 350°
2026-05-06 07:40 42.06861 12.05155 7169 ft 285 kts 351°
2026-05-06 07:40 42.08837 12.04903 7171 ft 286 kts 351°
2026-05-06 07:40 42.10771 12.04681 7185 ft 287 kts 351°
2026-05-06 07:40 42.12766 12.04468 7410 ft 288 kts 352°
2026-05-06 07:41 42.14769 12.04266 7625 ft 289 kts 352°
2026-05-06 07:41 42.16783 12.04067 7850 ft 290 kts 351°
2026-05-06 07:41 42.18749 12.03549 8078 ft 287 kts 338°
2026-05-06 07:41 42.20571 12.02496 8298 ft 285 kts 330°
2026-05-06 07:42 42.22367 12.01354 8513 ft 286 kts 330°
2026-05-06 07:42 42.24171 12.00222 8753 ft 287 kts 330°
2026-05-06 07:42 42.25982 11.99089 9023 ft 287 kts 330°
2026-05-06 07:42 42.27795 11.97955 9241 ft 288 kts 330°
2026-05-06 07:43 42.29617 11.96814 9465 ft 289 kts 330°
2026-05-06 07:43 42.31439 11.95666 9676 ft 290 kts 330°
2026-05-06 07:43 42.33270 11.94511 9925 ft 291 kts 330°
2026-05-06 07:43 42.35085 11.93367 10114 ft 293 kts 330°
2026-05-06 07:44 42.36947 11.92190 10233 ft 298 kts 330°
2026-05-06 07:44 42.38839 11.90992 10349 ft 302 kts 330°
2026-05-06 07:44 42.40756 11.89778 10477 ft 306 kts 330°
2026-05-06 07:44 42.42697 11.88548 10598 ft 310 kts 330°
2026-05-06 07:45 42.44661 11.87304 10708 ft 313 kts 330°
2026-05-06 07:45 42.46648 11.86045 10849 ft 317 kts 330°
2026-05-06 07:45 42.48633 11.84790 10955 ft 311 kts 330°
2026-05-06 07:45 42.50622 11.83529 11119 ft 326 kts 330°
2026-05-06 07:46 42.52724 11.82188 11598 ft 338 kts 330°
2026-05-06 07:46 42.54872 11.80822 12283 ft 344 kts 330°
2026-05-06 07:46 42.57052 11.79440 13015 ft 348 kts 330°
2026-05-06 07:46 42.59288 11.78022 13741 ft 352 kts 330°
2026-05-06 07:47 42.61517 11.76607 14385 ft 356 kts 330°
2026-05-06 07:47 42.63769 11.75175 15032 ft 359 kts 330°
2026-05-06 07:47 42.66041 11.73725 15670 ft 362 kts 330°
2026-05-06 07:47 42.68333 11.72262 16307 ft 366 kts 330°
2026-05-06 07:48 42.70646 11.70779 16933 ft 369 kts 330°
2026-05-06 07:48 42.72983 11.69284 17534 ft 373 kts 330°
2026-05-06 07:48 42.75342 11.67779 18132 ft 377 kts 330°
2026-05-06 07:48 42.77727 11.66257 18694 ft 380 kts 330°
2026-05-06 07:49 42.80129 11.64717 19223 ft 383 kts 330°
2026-05-06 07:49 42.82551 11.63163 19782 ft 386 kts 330°
2026-05-06 07:49 42.84994 11.61596 20344 ft 389 kts 330°
2026-05-06 07:49 42.87451 11.60015 20907 ft 392 kts 330°
2026-05-06 07:50 42.89928 11.58420 21462 ft 395 kts 330°
2026-05-06 07:50 42.92427 11.56809 22011 ft 398 kts 330°
2026-05-06 07:50 42.94943 11.55190 22537 ft 402 kts 330°
2026-05-06 07:50 42.97482 11.53559 23073 ft 405 kts 330°
2026-05-06 07:51 43.00041 11.51912 23585 ft 408 kts 330°
2026-05-06 07:51 43.02617 11.50248 24012 ft 411 kts 330°
2026-05-06 07:51 43.05208 11.48572 24437 ft 413 kts 330°
2026-05-06 07:51 43.07816 11.46882 24848 ft 416 kts 330°
2026-05-06 07:52 43.10440 11.45181 25255 ft 419 kts 330°
2026-05-06 07:52 43.13080 11.43469 25655 ft 421 kts 329°
2026-05-06 07:52 43.15734 11.41743 26044 ft 423 kts 329°
2026-05-06 07:52 43.18400 11.40008 26433 ft 426 kts 329°
2026-05-06 07:53 43.21083 11.38262 26813 ft 428 kts 329°
2026-05-06 07:53 43.23782 11.36505 27190 ft 430 kts 329°
2026-05-06 07:53 43.26492 11.34742 27565 ft 433 kts 328°
2026-05-06 07:53 43.29220 11.32967 27928 ft 435 kts 328°
2026-05-06 07:54 43.31964 11.31177 28290 ft 437 kts 328°
2026-05-06 07:54 43.34715 11.29373 28655 ft 439 kts 328°
2026-05-06 07:54 43.37481 11.27558 29012 ft 442 kts 328°
2026-05-06 07:54 43.40264 11.25733 29346 ft 444 kts 328°
2026-05-06 07:55 43.43057 11.23902 29673 ft 446 kts 328°
2026-05-06 07:55 43.45872 11.22058 30019 ft 449 kts 327°
2026-05-06 07:55 43.48697 11.20206 30284 ft 451 kts 327°
2026-05-06 07:55 43.51528 11.18344 30547 ft 453 kts 327°
2026-05-06 07:56 43.54379 11.16465 30802 ft 454 kts 327°
2026-05-06 07:56 43.57232 11.14581 31050 ft 456 kts 327°
2026-05-06 07:56 43.60101 11.12680 31291 ft 458 kts 327°
2026-05-06 07:56 43.62973 11.10781 31591 ft 458 kts 327°
2026-05-06 07:57 43.65847 11.08885 31929 ft 457 kts 327°
2026-05-06 07:57 43.68716 11.06994 32282 ft 456 kts 327°
2026-05-06 07:57 43.71576 11.05106 32634 ft 455 kts 327°
2026-05-06 07:57 43.74429 11.03216 32878 ft 456 kts 327°
2026-05-06 07:58 43.77267 11.01336 32927 ft 445 kts 327°
2026-05-06 07:58 43.80042 10.99501 32922 ft 440 kts 326°
2026-05-06 07:58 43.85536 10.95849 32932 ft 437 kts 326°
2026-05-06 07:59 43.91007 10.92185 32929 ft 437 kts 326°
2026-05-06 07:59 43.96485 10.88516 32944 ft 437 kts 326°
2026-05-06 08:00 44.01946 10.84866 32938 ft 435 kts 326°
2026-05-06 08:00 44.07394 10.81206 32941 ft 435 kts 326°
2026-05-06 08:01 44.12841 10.77533 32947 ft 436 kts 326°
2026-05-06 08:01 44.18296 10.73854 32948 ft 436 kts 326°
2026-05-06 08:02 44.23758 10.70169 32951 ft 437 kts 326°
2026-05-06 08:02 44.29229 10.66474 32948 ft 437 kts 326°
2026-05-06 08:03 44.34692 10.62771 32943 ft 437 kts 325°
2026-05-06 08:03 44.40154 10.59054 32939 ft 437 kts 325°
2026-05-06 08:04 44.45621 10.55327 32930 ft 437 kts 325°
2026-05-06 08:04 44.51089 10.51597 32923 ft 437 kts 325°
2026-05-06 08:05 44.56556 10.47859 32919 ft 437 kts 325°
2026-05-06 08:05 44.62022 10.44109 32905 ft 437 kts 325°
2026-05-06 08:06 44.67496 10.40346 32898 ft 438 kts 324°
2026-05-06 08:06 44.72977 10.36573 32894 ft 439 kts 324°
2026-05-06 08:07 44.78462 10.32792 32882 ft 440 kts 324°
2026-05-06 08:07 44.83962 10.29003 32886 ft 440 kts 324°
2026-05-06 08:08 44.89460 10.25190 32885 ft 440 kts 324°
2026-05-06 08:08 44.94954 10.21372 32883 ft 440 kts 324°
2026-05-06 08:09 45.00455 10.17551 32888 ft 441 kts 324°
2026-05-06 08:09 45.05062 10.14340 32892 ft 441 kts 324°
2026-05-06 08:10 45.10560 10.10502 32896 ft 441 kts 324°
2026-05-06 08:10 45.16054 10.06657 32898 ft 440 kts 324°
2026-05-06 08:11 45.21549 10.02803 32898 ft 440 kts 324°
2026-05-06 08:11 45.27041 9.98937 32898 ft 441 kts 324°
2026-05-06 08:12 45.32535 9.95067 32896 ft 441 kts 324°
2026-05-06 08:12 45.38036 9.91189 32891 ft 442 kts 324°
2026-05-06 08:13 45.43504 9.87319 32890 ft 442 kts 324°
2026-05-06 08:13 45.49012 9.83404 32886 ft 443 kts 324°
2026-05-06 08:14 45.54541 9.79492 32885 ft 444 kts 324°
2026-05-06 08:14 45.60069 9.75554 32879 ft 444 kts 324°
2026-05-06 08:15 45.65604 9.71591 32877 ft 445 kts 324°
2026-05-06 08:15 45.71155 9.67621 32876 ft 446 kts 324°
2026-05-06 08:16 45.76713 9.63634 32876 ft 447 kts 324°
2026-05-06 08:16 45.82282 9.59645 32888 ft 447 kts 324°
2026-05-06 08:17 45.87847 9.55640 32892 ft 448 kts 324°
2026-05-06 08:17 45.93420 9.51619 32910 ft 449 kts 324°
2026-05-06 08:18 45.98967 9.47599 32909 ft 450 kts 324°
2026-05-06 08:18 46.04600 9.43512 32900 ft 450 kts 324°
2026-05-06 08:19 46.10188 9.39448 32893 ft 450 kts 324°
2026-05-06 08:19 46.15776 9.35377 32878 ft 450 kts 324°
2026-05-06 08:20 46.21379 9.31288 32878 ft 452 kts 324°
2026-05-06 08:20 46.26993 9.27184 32870 ft 452 kts 324°
2026-05-06 08:21 46.32606 9.23065 32870 ft 453 kts 325°
2026-05-06 08:21 46.38190 9.18959 32867 ft 453 kts 325°
2026-05-06 08:22 46.43811 9.14816 32869 ft 451 kts 325°
2026-05-06 08:22 46.46595 9.12763 32024 ft 454 kts 325°
2026-05-06 08:22 46.49459 9.10628 30358 ft 469 kts 325°
2026-05-06 08:23 46.52410 9.08423 28046 ft 485 kts 326°
2026-05-06 08:23 46.55437 9.06171 26613 ft 484 kts 327°
2026-05-06 08:23 46.58358 9.04034 26424 ft 456 kts 328°
2026-05-06 08:23 46.61147 9.02005 26284 ft 430 kts 327°
2026-05-06 08:24 46.63755 9.00097 25926 ft 412 kts 327°
2026-05-06 08:24 46.66283 8.98222 25285 ft 404 kts 327°
2026-05-06 08:24 46.68768 8.96357 24537 ft 401 kts 327°
2026-05-06 08:24 46.71234 8.94497 23821 ft 397 kts 328°
2026-05-06 08:25 46.73678 8.92658 23033 ft 394 kts 328°
2026-05-06 08:25 46.76108 8.90835 22266 ft 390 kts 328°
2026-05-06 08:25 46.78507 8.89040 21554 ft 385 kts 328°
2026-05-06 08:25 46.80875 8.87269 20882 ft 380 kts 328°
2026-05-06 08:26 46.83206 8.85524 20209 ft 374 kts 328°
2026-05-06 08:26 46.85505 8.83795 19579 ft 369 kts 328°
2026-05-06 08:26 46.87774 8.82085 18969 ft 364 kts 328°
2026-05-06 08:26 46.90007 8.80405 18356 ft 359 kts 328°
2026-05-06 08:27 46.92212 8.78746 17696 ft 354 kts 328°
2026-05-06 08:27 46.94422 8.77176 17019 ft 353 kts 334°
2026-05-06 08:27 46.96760 8.76108 16323 ft 352 kts 345°
2026-05-06 08:27 46.99184 8.75607 15633 ft 351 kts 352°
2026-05-06 08:28 47.01593 8.75246 15026 ft 348 kts 352°
2026-05-06 08:28 47.02414 8.75120 14811 ft 347 kts 352°
2026-05-06 08:28 47.03569 8.74940 14532 ft 345 kts 352°
2026-05-06 08:28 47.05946 8.74561 13994 ft 342 kts 352°
2026-05-06 08:29 47.08309 8.74129 13826 ft 342 kts 349°
2026-05-06 08:29 47.10661 8.73562 13826 ft 343 kts 347°
2026-05-06 08:29 47.12996 8.72925 13543 ft 339 kts 347°
2026-05-06 08:29 47.15305 8.72270 12872 ft 336 kts 347°
2026-05-06 08:30 47.17584 8.71623 12254 ft 330 kts 347°
2026-05-06 08:30 47.19828 8.71001 11637 ft 325 kts 348°
2026-05-06 08:30 47.22034 8.70404 11033 ft 320 kts 349°
2026-05-06 08:30 47.24207 8.69825 10452 ft 314 kts 349°
2026-05-06 08:31 47.26330 8.69195 9973 ft 308 kts 343°
2026-05-06 08:31 47.28341 8.68131 9828 ft 306 kts 334°
2026-05-06 08:31 47.30258 8.66810 9834 ft 303 kts 334°
2026-05-06 08:31 47.32169 8.65505 9839 ft 303 kts 334°
2026-05-06 08:32 47.34083 8.64200 9839 ft 303 kts 334°
2026-05-06 08:32 47.35998 8.62895 9840 ft 303 kts 334°
2026-05-06 08:32 47.37875 8.61500 9834 ft 302 kts 328°
2026-05-06 08:32 47.39681 8.59903 9837 ft 302 kts 328°
2026-05-06 08:33 47.41480 8.58308 9836 ft 302 kts 328°
2026-05-06 08:33 47.43224 8.56588 9838 ft 300 kts 318°
2026-05-06 08:33 47.44653 8.54365 9838 ft 298 kts 304°
2026-05-06 08:33 47.45680 8.51733 9838 ft 295 kts 290°
2026-05-06 08:34 47.46268 8.48848 9837 ft 293 kts 277°
2026-05-06 08:34 47.46837 8.42901 9838 ft 292 kts 276°
2026-05-06 08:34 47.47124 8.39930 9838 ft 292 kts 276°
2026-05-06 08:35 47.47413 8.36956 9836 ft 292 kts 276°
2026-05-06 08:35 47.47701 8.33983 9837 ft 292 kts 276°
2026-05-06 08:35 47.47983 8.31049 9837 ft 292 kts 276°
2026-05-06 08:35 47.48272 8.28039 9837 ft 292 kts 276°
2026-05-06 08:36 47.48556 8.25068 9839 ft 292 kts 276°
2026-05-06 08:36 47.48838 8.22096 9839 ft 292 kts 276°
2026-05-06 08:36 47.49117 8.19124 9840 ft 292 kts 276°
2026-05-06 08:36 47.49397 8.16154 9839 ft 292 kts 276°
2026-05-06 08:37 47.49676 8.13184 9840 ft 291 kts 276°
2026-05-06 08:37 47.49965 8.10220 9840 ft 292 kts 279°
2026-05-06 08:37 47.50739 8.07463 9836 ft 294 kts 306°
2026-05-06 08:37 47.52256 8.05496 9450 ft 291 kts 334°
2026-05-06 08:38 47.54174 8.04845 8823 ft 288 kts
2026-05-06 08:38 47.56118 8.05566 8222 ft 284 kts 29°
2026-05-06 08:38 47.57606 8.07420 7634 ft 280 kts 55°
2026-05-06 08:38 47.58388 8.10003 7049 ft 275 kts 82°
2026-05-06 08:39 47.58317 8.12791 6854 ft 273 kts 107°
2026-05-06 08:39 47.57578 8.15377 6829 ft 275 kts 117°
2026-05-06 08:39 47.56788 8.17964 6831 ft 275 kts 109°
2026-05-06 08:39 47.56440 8.20567 6834 ft 249 kts 94°
2026-05-06 08:40 47.56532 8.23033 6825 ft 235 kts 80°
2026-05-06 08:40 47.56958 8.25225 6870 ft 209 kts 68°
2026-05-06 08:40 47.57541 8.27136 6830 ft 203 kts 67°
2026-05-06 08:40 47.58113 8.29041 6826 ft 202 kts 67°
2026-05-06 08:41 47.58675 8.30924 6513 ft 199 kts 67°
2026-05-06 08:41 47.59234 8.32801 6095 ft 199 kts 67°
2026-05-06 08:41 47.59765 8.34689 5638 ft 198 kts 75°
2026-05-06 08:41 47.59812 8.36686 5217 ft 191 kts 102°
2026-05-06 08:42 47.59258 8.38420 4609 ft 187 kts 130°
2026-05-06 08:42 47.58317 8.39754 3968 ft 188 kts 138°
2026-05-06 08:42 47.57361 8.41067 3380 ft 187 kts 138°
2026-05-06 08:42 47.56411 8.42370 2892 ft 184 kts 137°
2026-05-06 08:43 47.55466 8.43667 2834 ft 186 kts 137°
2026-05-06 08:43 47.54515 8.44971 2834 ft 187 kts 137°
2026-05-06 08:43 47.53560 8.46279 2801 ft 187 kts 137°
2026-05-06 08:43 47.52621 8.47558 2717 ft 177 kts 138°
2026-05-06 08:44 47.51753 8.48810 2506 ft 172 kts 135°
2026-05-06 08:44 47.50919 8.50049 2335 ft 169 kts 136°
2026-05-06 08:44 47.50060 8.51225 2138 ft 168 kts 138°
2026-05-06 08:44 47.49190 8.52371 1955 ft 168 kts 139°
2026-05-06 08:45 47.48306 8.53500 1530 ft 166 kts 141°
2026-05-06 08:45 47.47471 8.54594 1419 ft 154 kts 133°
2026-05-06 08:45 47.46765 8.55572 1394 ft 112 kts 136°
2026-05-06 08:45 47.46408 8.56063 1404 ft 32 kts 137°
2026-05-06 08:46 47.46344 8.56150 1404 ft 7 kts 137°
2026-05-06 08:46 47.46324 8.56177 1407 ft 1 kts 137°
2026-05-06 08:46 47.46308 8.56198 1408 ft 13 kts 137°
2026-05-06 08:46 47.46203 8.56330 1409 ft 19 kts 157°
2026-05-06 08:47 47.46116 8.56338 1410 ft 0 kts 185°
2026-05-06 08:48 47.46050 8.56329 1411 ft 28 kts 186°
2026-05-06 08:49 47.45861 8.56303 1415 ft 26 kts 185°
2026-05-06 08:49 47.45703 8.56277 1413 ft 23 kts 185°
2026-05-06 08:49 47.45547 8.56252 1412 ft 18 kts 187°
2026-05-06 08:49 47.45477 8.56198 1409 ft 9 kts 265°
2026-05-06 08:50 47.45483 8.56091 1407 ft 19 kts 277°
2026-05-06 08:50 47.45499 8.55885 1407 ft 0 kts 275°
2026-05-06 08:50 47.45500 8.55839 1409 ft 16 kts 263°
2026-05-06 08:50 47.45469 8.55809 1409 ft 4 kts 184°
2026-05-06 08:51 47.45432 8.55804 1411 ft 0 kts 186°
2026-05-06 08:51 47.45417 8.55802 1411 ft 0 kts 186°